Wind_Speed
33 34 34 33 33 33 32 31 31 30 30 29 27 26 25 23 21 20 19 17 15 14 12 11 10 9 9 9 9 9 10 12 13 13 13 12 12 12 11 12 11 11 10
30 32 33 34 33 33 33 32 32 31 31 31 29 28 27 25 23 22 21 20 18 16 15 13 12 11 10 10 10 10 11 12 13 13 13 13 12 11 12 12 12 11 10
27 30 32 33 33 33 33 33 32 32 31 31 31 28 28 28 27 25 23 22 21 19 17 15 14 13 12 11 11 12 12 13 14 13 13 13 12 12 12 12 12 11 11
24 26 29 32 33 34 34 33 33 32 32 31 32 30 28 27 28 27 26 25 23 22 20 18 16 15 14 13 13 13 13 13 13 14 14 13 12 12 12 12 12 11 11
22 24 26 28 31 33 34 33 33 33 32 32 32 31 30 28 27 28 28 27 26 24 22 21 19 18 16 15 14 14 14 14 14 14 14 14 13 13 12 12 12 12 12
20 22 24 26 28 30 32 33 33 33 33 33 33 32 32 31 28 28 28 28 28 26 25 23 22 20 19 17 16 16 15 15 15 15 15 14 14 14 13 13 13 13 13
18 20 22 24 26 28 30 31 32 33 33 32 32 32 32 32 31 29 30 29 29 28 27 26 25 23 22 20 19 18 17 16 16 16 16 16 15 15 15 14 14 13 13
16 17 19 21 23 25 27 29 30 32 32 32 32 32 32 32 32 31 31 31 32 31 29 28 28 26 25 23 22 21 19 19 18 17 17 16 16 16 16 16 15 15 14
14 15 16 18 20 22 24 27 28 30 30 31 32 31 32 32 32 33 32 31 32 32 32 30 30 29 28 27 25 24 22 21 20 19 18 17 17 17 17 17 16 16 15
12 13 14 15 18 20 22 24 26 27 28 29 31 32 32 32 32 33 33 32 32 33 33 33 31 30 30 28 27 27 26 24 22 21 20 19 18 18 18 18 17 17 17
12 12 12 13 14 17 19 22 24 26 28 29 30 31 31 32 32 33 33 34 33 33 32 33 33 33 32 31 29 29 29 27 25 24 22 22 21 21 20 20 19 19 18
13 11 11 12 12 14 16 19 21 23 25 28 29 30 31 31 32 32 33 34 33 33 33 33 33 34 34 33 32 32 31 30 29 27 25 24 23 23 22 22 21 20 20
14 12 10 10 10 11 13 15 18 20 23 25 28 28 29 30 31 32 33 34 35 35 34 34 34 34 34 34 34 35 34 32 31 30 28 27 26 25 24 23 23 22 22
15 12 10 9 8 10 11 14 15 18 21 23 25 26 28 29 30 32 33 34 35 35 35 35 35 35 34 35 34 34 34 33 32 31 31 29 28 27 26 25 25 25 24
16 14 11 9 7 7 9 11 13 16 18 21 23 25 26 28 29 31 32 34 34 35 35 35 35 35 36 35 35 34 34 34 33 33 33 32 31 29 28 28 27 26 26
18 16 13 10 8 6 6 8 10 12 15 18 20 22 24 26 28 29 31 33 34 34 35 35 36 36 36 36 36 36 35 35 34 33 34 34 33 32 31 30 29 28 28
19 17 15 12 9 7 6 7 8 9 12 15 17 19 21 23 24 26 28 31 33 34 34 34 35 35 35 35 37 36 35 36 35 34 34 34 34 34 33 32 31 30 29
19 18 16 14 12 9 7 7 7 7 9 11 13 16 18 21 22 24 26 28 30 31 32 33 34 34 34 35 36 37 36 36 36 35 34 34 33 34 33 33 32 31 30
20 18 17 15 14 11 8 7 6 6 7 8 10 13 15 18 19 21 23 25 27 29 30 32 32 33 33 34 34 35 35 35 34 35 34 33 33 33 34 34 33 32 32
20 19 17 16 14 13 10 8 7 5 5 6 7 9 11 14 16 18 20 21 24 26 28 30 32 32 32 32 33 33 33 33 33 33 33 33 33 33 33 34 34 33 33
21 20 19 17 15 13 11 9 8 6 5 4 5 6 9 12 14 16 18 19 22 24 26 28 29 30 31 32 32 32 32 32 32 33 33 32 33 33 32 32 33 32 32
21 20 20 18 17 15 14 11 10 8 6 5 5 5 7 9 12 14 15 17 20 22 24 26 28 28 29 31 31 31 31 32 32 33 33 33 33 32 31 31 31 32 33
20 20 20 19 18 16 14 12 11 10 7 6 5 5 6 8 10 11 13 15 17 19 21 23 25 27 28 29 30 30 31 31 32 33 33 32 31 31 32 32 32 32 32
20 19 19 18 18 17 15 14 12 11 9 7 6 5 5 6 8 10 12 13 15 17 19 21 22 25 26 28 28 28 29 30 30 31 32 32 31 32 32 32 31 31 31
20 19 18 18 17 17 16 14 13 12 10 9 8 7 5 5 6 8 10 12 14 17 18 19 21 22 24 26 27 27 28 29 30 30 31 31 31 32 32 32 32 32 32
19 19 18 18 17 17 16 15 14 13 12 10 9 8 7 6 6 7 9 10 12 14 16 18 20 21 22 24 26 26 27 28 29 30 30 31 31 32 32 32 32 32 32
Wind_Direction
254 253 252 251 250 249 247 246 246 245 245 243 244 242 241 239 236 235 235 235 236 235 234 232 229 228 225 218 209 201 197 195 195 192 192 192 193 195 196 195 196 197 200
255 251 250 249 249 247 246 245 245 245 245 242 242 241 238 237 235 234 233 234 235 233 231 230 228 225 224 220 212 206 202 198 197 197 197 198 198 201 202 202 202 204 207
257 252 249 248 246 245 244 243 245 243 243 242 241 240 237 238 236 233 231 232 233 230 229 227 226 224 224 220 215 212 209 206 204 202 203 202 204 205 206 206 208 211 215
260 255 250 247 245 244 243 242 243 242 241 240 239 237 237 236 235 234 232 231 230 228 228 227 226 224 224 223 220 216 214 212 209 207 207 207 208 210 211 213 215 218 222
264 258 253 249 246 244 243 241 241 240 238 238 238 237 236 233 233 234 231 230 230 228 227 227 226 225 224 224 222 220 218 215 214 213 211 212 213 215 217 218 220 223 226
268 260 255 251 248 245 243 240 239 239 238 238 237 237 236 234 234 232 230 230 229 227 227 226 226 225 224 224 223 222 220 219 218 217 216 217 218 219 221 222 225 228 230
273 264 258 253 249 246 242 240 239 238 237 237 237 236 234 233 231 230 231 229 228 227 226 226 226 226 225 225 225 224 223 223 222 221 221 222 222 224 225 226 229 231 234
281 270 261 255 251 247 242 239 237 238 238 237 238 236 234 233 231 229 231 230 229 227 226 226 225 227 227 226 226 225 226 226 225 225 225 225 225 227 228 230 233 235 239
289 277 267 258 253 249 244 239 237 236 236 235 235 235 234 232 230 229 230 230 229 228 228 227 226 226 226 226 227 227 226 226 227 227 227 227 228 230 231 234 237 239 243
300 284 272 264 255 250 245 241 239 236 236 235 234 233 233 232 230 230 230 228 228 228 226 225 226 227 227 228 227 228 227 227 227 228 229 230 231 233 235 237 239 242 246
315 297 280 270 260 252 246 241 239 237 236 234 233 232 232 232 231 230 230 228 228 228 226 226 227 228 227 228 228 227 227 227 227 229 231 232 234 237 238 240 243 245 248
328 314 295 277 266 255 247 242 239 238 235 234 233 233 233 232 231 230 229 229 228 228 227 228 228 227 228 229 229 228 228 229 229 229 231 233 236 238 240 242 245 247 250
339 327 311 290 272 260 251 244 241 239 236 234 233 233 233 231 232 232 231 231 231 228 228 229 230 230 230 230 230 230 231 232 230 231 232 234 237 239 241 244 246 249 251
351 342 327 307 284 267 256 249 245 242 239 237 235 235 234 233 233 233 232 232 232 231 229 230 231 231 232 231 230 230 230 231 232 232 233 235 237 239 242 245 248 250 252
3 358 346 333 311 283 262 254 251 247 242 239 236 235 234 233 233 234 233 231 231 230 230 231 232 231 231 232 232 231 231 231 232 233 234 236 238 240 242 245 249 250 252
7 5 1 353 340 316 285 266 260 252 246 242 240 238 236 235 233 234 233 232 231 230 229 230 232 232 233 233 232 232 232 231 233 235 236 237 239 241 244 246 248 249 252
11 10 7 2 351 337 316 291 275 259 249 246 243 240 238 237 235 235 235 233 231 230 230 230 231 231 232 233 232 232 232 233 235 236 238 238 240 241 244 245 247 249 252
13 13 11 9 5 353 339 322 297 271 257 252 248 244 241 238 236 235 235 233 232 231 230 230 230 231 232 232 232 233 232 232 233 235 237 238 240 241 243 246 248 249 251
12 13 12 11 8 2 351 341 324 294 271 260 253 247 243 237 234 234 233 231 231 231 231 230 229 231 231 230 231 231 231 232 232 235 235 237 240 241 243 246 246 249 252
11 12 12 10 10 8 2 356 346 324 301 283 265 249 241 235 232 232 231 230 230 231 232 232 232 233 233 232 232 233 232 233 233 235 234 237 240 242 243 246 246 249 252
11 11 11 11 10 9 4 359 355 348 330 309 285 261 245 236 233 232 232 231 232 234 234 234 233 234 235 232 233 234 234 235 235 236 236 238 240 241 243 245 247 249 251
9 10 11 11 10 9 8 4 2 358 346 330 307 275 256 243 239 238 237 235 235 236 235 235 234 234 233 231 232 233 235 236 237 238 239 240 239 241 242 245 247 249 251
5 7 9 10 10 9 9 9 7 3 357 344 328 302 272 255 245 241 242 240 238 236 235 234 233 233 234 232 232 233 234 235 238 240 241 241 242 242 244 246 247 249 251
0 2 4 6 7 8 8 8 4 3 0 355 345 332 297 271 253 247 245 242 240 238 236 234 233 232 233 234 234 234 235 236 238 239 242 244 245 246 247 247 248 249 251
356 357 359 1 3 4 4 3 3 2 0 356 348 340 325 295 269 258 252 248 245 241 238 237 235 235 233 232 236 237 237 238 239 241 243 244 245 248 248 248 247 248 250
351 352 353 355 358 360 360 359 359 357 355 351 346 341 334 316 296 279 266 255 248 244 242 240 238 237 237 236 236 236 238 239 241 242 242 244 246 246 247 247 247 248 249
Height
5819 5821 5823 5825 5827 5829 5831 5834 5836 5838 5841 5844 5846 5849 5852 5854 5856 5858 5860 5862 5863 5865 5866 5868 5869 5870 5871 5872 5873 5874 5875 5876 5878 5880 5881 5883 5884 5886 5887 5889 5890 5891 5892
5811 5812 5814 5816 5819 5821 5824 5827 5829 5832 5834 5837 5840 5843 5846 5848 5851 5853 5856 5858 5860 5862 5864 5865 5867 5868 5869 5870 5871 5872 5874 5875 5877 5878 5880 5882 5883 5885 5886 5888 5889 5890 5892
5804 5805 5806 5808 5811 5813 5816 5819 5822 5825 5827 5831 5834 5837 5840 5843 5846 5848 5851 5854 5856 5858 5860 5862 5864 5866 5867 5868 5870 5871 5872 5874 5875 5877 5879 5880 5882 5883 5885 5886 5888 5889 5890
5797 5797 5799 5800 5802 5805 5808 5811 5814 5817 5820 5824 5827 5831 5834 5837 5840 5843 5846 5849 5851 5854 5857 5859 5861 5863 5865 5866 5868 5869 5871 5872 5874 5875 5877 5879 5880 5882 5883 5885 5886 5888 5889
5790 5790 5791 5793 5795 5798 5800 5804 5807 5810 5813 5817 5820 5824 5827 5831 5834 5837 5840 5843 5847 5849 5852 5855 5858 5860 5862 5864 5866 5867 5869 5870 5872 5874 5875 5877 5879 5880 5882 5883 5884 5886 5887
5783 5784 5785 5786 5788 5790 5793 5796 5799 5803 5806 5810 5813 5817 5821 5824 5828 5831 5834 5838 5841 5844 5847 5851 5854 5856 5859 5861 5863 5865 5867 5868 5870 5872 5873 5875 5877 5878 5880 5881 5882 5884 5885
5777 5777 5778 5779 5780 5782 5785 5788 5791 5795 5799 5802 5806 5810 5814 5817 5821 5825 5828 5831 5835 5838 5842 5846 5849 5852 5855 5857 5860 5862 5864 5866 5868 5869 5871 5873 5874 5876 5877 5879 5880 5881 5882
5771 5771 5771 5772 5774 5775 5778 5781 5784 5787 5791 5795 5799 5803 5807 5811 5814 5818 5821 5825 5828 5832 5836 5840 5844 5847 5850 5853 5855 5858 5860 5862 5864 5866 5868 5870 5871 5873 5875 5876 5877 5879 5880
5766 5766 5766 5766 5767 5769 5771 5774 5777 5780 5784 5788 5792 5796 5800 5803 5807 5811 5814 5818 5822 5826 5830 5834 5837 5841 5844 5848 5851 5853 5856 5858 5861 5863 5865 5866 5868 5870 5872 5873 5874 5876 5877
5762 5761 5761 5761 5762 5763 5765 5767 5770 5774 5777 5780 5784 5788 5792 5796 5800 5804 5808 5812 5816 5819 5823 5827 5831 5835 5838 5842 5845 5848 5851 5854 5856 5859 5861 5863 5865 5866 5868 5870 5871 5872 5873
5758 5757 5756 5756 5757 5758 5759 5762 5764 5767 5770 5774 5777 5781 5784 5788 5792 5797 5801 5805 5809 5813 5816 5820 5824 5828 5832 5836 5839 5842 5846 5849 5852 5854 5856 5858 5860 5862 5864 5866 5867 5869 5870
5755 5753 5752 5752 5752 5753 5754 5756 5758 5761 5764 5767 5770 5774 5777 5781 5785 5789 5793 5797 5801 5806 5809 5814 5818 5821 5825 5829 5833 5836 5840 5843 5846 5849 5851 5853 5856 5858 5859 5861 5863 5864 5865
5753 5750 5749 5748 5748 5749 5750 5751 5753 5755 5758 5761 5764 5767 5770 5774 5778 5782 5786 5790 5794 5798 5802 5806 5810 5814 5818 5822 5826 5830 5833 5836 5840 5843 5846 5848 5850 5853 5854 5856 5858 5859 5860
5751 5748 5746 5745 5745 5745 5746 5747 5749 5750 5753 5755 5758 5761 5764 5767 5770 5774 5779 5782 5786 5790 5795 5799 5802 5806 5810 5814 5818 5822 5826 5830 5833 5836 5839 5842 5845 5847 5849 5851 5852 5854 5855
5750 5747 5745 5743 5742 5742 5742 5743 5745 5746 5748 5749 5752 5754 5757 5760 5764 5767 5771 5775 5779 5783 5787 5791 5795 5799 5802 5807 5811 5814 5819 5822 5826 5829 5832 5835 5838 5840 5843 5845 5846 5848 5849
5751 5747 5744 5742 5741 5740 5740 5740 5741 5742 5743 5745 5746 5749 5751 5754 5757 5760 5763 5767 5771 5775 5779 5783 5788 5791 5795 5799 5803 5807 5811 5815 5818 5821 5825 5828 5831 5833 5836 5838 5839 5841 5842
5751 5747 5744 5741 5740 5738 5738 5737 5738 5738 5739 5740 5741 5743 5745 5748 5750 5753 5756 5759 5763 5767 5772 5776 5779 5783 5788 5792 5796 5799 5803 5807 5810 5814 5817 5820 5823 5826 5828 5830 5832 5834 5835
5753 5749 5745 5742 5739 5738 5736 5736 5735 5735 5735 5736 5737 5738 5740 5741 5744 5746 5749 5752 5756 5760 5764 5768 5772 5776 5780 5784 5788 5792 5795 5799 5802 5806 5809 5812 5815 5818 5821 5823 5825 5827 5828
5755 5750 5747 5743 5740 5738 5736 5735 5733 5733 5732 5733 5733 5734 5734 5736 5738 5741 5743 5746 5749 5753 5757 5761 5765 5769 5773 5777 5780 5784 5787 5791 5794 5798 5801 5804 5807 5810 5813 5815 5817 5819 5821
5756 5752 5748 5744 5741 5738 5736 5734 5732 5731 5730 5730 5730 5730 5730 5731 5733 5735 5738 5741 5743 5747 5750 5754 5758 5761 5765 5769 5773 5776 5780 5783 5787 5790 5793 5796 5799 5802 5804 5807 5809 5810 5812
5757 5753 5749 5745 5742 5739 5736 5733 5732 5730 5729 5729 5728 5727 5728 5728 5730 5732 5734 5736 5738 5741 5744 5748 5751 5755 5758 5762 5766 5769 5773 5776 5779 5782 5785 5788 5791 5794 5796 5798 5800 5802 5803
5759 5755 5750 5746 5743 5739 5736 5733 5731 5730 5729 5728 5727 5726 5726 5726 5727 5728 5730 5731 5734 5736 5739 5741 5745 5748 5751 5755 5758 5762 5765 5769 5772 5776 5778 5780 5783 5785 5787 5790 5791 5793 5795
5760 5756 5752 5748 5744 5740 5737 5734 5732 5730 5728 5727 5726 5725 5724 5724 5725 5725 5727 5728 5729 5731 5734 5736 5739 5741 5744 5748 5751 5755 5758 5761 5765 5767 5769 5772 5774 5777 5779 5781 5783 5784 5786
5761 5757 5753 5749 5745 5741 5738 5735 5733 5730 5728 5727 5725 5724 5723 5723 5723 5723 5724 5725 5726 5727 5729 5731 5733 5735 5738 5741 5744 5748 5750 5754 5757 5759 5762 5764 5766 5769 5771 5772 5774 5776 5777
5761 5757 5753 5750 5746 5742 5739 5736 5734 5731 5729 5727 5725 5724 5723 5722 5721 5721 5721 5722 5722 5723 5724 5726 5728 5730 5732 5735 5738 5741 5744 5746 5749 5751 5754 5756 5758 5760 5762 5764 5766 5768 5769
5761 5757 5753 5750 5747 5743 5740 5737 5734 5732 5729 5727 5725 5723 5722 5721 5720 5719 5719 5719 5719 5719 5720 5722 5723 5725 5727 5729 5731 5734 5737 5739 5741 5744 5746 5748 5750 5752 5754 5756 5757 5759 5760